Time,TemperatureF,DewpointF,PressureIn,WindDirection,WindDirectionDegrees,WindSpeedMPH,WindSpeedGustMPH,Humidity,HourlyPrecipIn,Conditions,Clouds,dailyrainin,SolarRadiationWatts/m^2,SoftwareType,DateUTC
2013-03-19 00:02:00,41.0,22.0,-100.00,West,280,23.0,43.0,47,0.00,,,0.00,0.000000,,2013-03-19 07:02:00,
2013-03-19 00:12:00,41.0,22.0,-100.00,West,280,23.0,43.0,47,0.00,,,0.00,0.000000,,2013-03-19 07:12:00,
2013-03-19 00:21:00,41.0,22.0,-100.00,West,280,23.0,43.0,47,0.00,,,0.00,0.000000,,2013-03-19 07:21:00,
2013-03-19 00:52:00,41.0,20.0,-100.00,West,273,19.0,43.0,43,0.00,,,0.00,0.000000,,2013-03-19 07:52:00,
2013-03-19 01:02:00,41.0,20.0,-100.00,West,273,19.0,43.0,43,0.00,,,0.00,0.000000,,2013-03-19 08:02:00,
2013-03-19 01:12:00,41.0,20.0,-100.00,West,273,19.0,43.0,43,0.00,,,0.00,0.000000,,2013-03-19 08:12:00,
2013-03-19 01:21:00,41.0,20.0,-100.00,West,273,19.0,43.0,43,0.00,,,0.00,0.000000,,2013-03-19 08:21:00,
2013-03-19 01:52:00,41.0,19.0,-100.00,West,273,19.0,35.0,40,0.00,,,-99.99,0.000000,,2013-03-19 08:52:00,
2013-03-19 02:02:00,41.0,19.0,-100.00,West,273,19.0,35.0,40,0.00,,,-99.99,0.000000,,2013-03-19 09:02:00,
2013-03-19 02:12:00,41.0,19.0,-100.00,West,273,19.0,35.0,40,0.00,,,-99.99,0.000000,,2013-03-19 09:12:00,
2013-03-19 02:22:00,41.0,19.0,-100.00,West,273,19.0,35.0,40,0.00,,,-99.99,0.000000,,2013-03-19 09:22:00,
2013-03-19 02:53:00,41.0,15.0,-100.00,West,281,25.0,37.0,34,0.00,,,0.00,0.000000,,2013-03-19 09:53:00,
2013-03-19 03:03:00,41.0,15.0,-100.00,West,281,25.0,37.0,34,0.00,,,0.00,0.000000,,2013-03-19 10:03:00,
2013-03-19 03:12:00,41.0,15.0,-100.00,West,281,25.0,37.0,34,0.00,,,0.00,0.000000,,2013-03-19 10:12:00,
2013-03-19 03:22:00,41.0,15.0,-100.00,West,281,25.0,37.0,34,0.00,,,0.00,0.000000,,2013-03-19 10:22:00,
2013-03-19 03:53:00,40.0,15.0,-100.00,West,275,23.0,37.0,36,0.00,,,0.00,0.000000,,2013-03-19 10:53:00,
2013-03-19 04:02:00,40.0,15.0,-100.00,West,275,23.0,37.0,36,0.00,,,0.00,0.000000,,2013-03-19 11:02:00,
2013-03-19 04:12:00,40.0,15.0,-100.00,West,275,23.0,37.0,36,0.00,,,0.00,0.000000,,2013-03-19 11:12:00,
2013-03-19 04:22:00,40.0,15.0,-100.00,West,275,23.0,37.0,36,0.00,,,0.00,0.000000,,2013-03-19 11:22:00,
2013-03-19 04:52:00,39.0,18.0,-100.00,West,273,14.0,40.0,43,0.00,,,0.00,0.000000,,2013-03-19 11:52:00,
2013-03-19 05:02:00,39.0,18.0,-100.00,West,273,14.0,40.0,43,0.00,,,0.00,0.000000,,2013-03-19 12:02:00,
2013-03-19 05:12:00,39.0,18.0,-100.00,West,273,14.0,40.0,43,0.00,,,0.00,0.000000,,2013-03-19 12:12:00,
2013-03-19 05:22:00,39.0,18.0,-100.00,West,273,14.0,40.0,43,0.00,,,0.00,0.000000,,2013-03-19 12:22:00,
2013-03-19 05:52:00,39.0,14.0,-100.00,West,277,17.0,34.0,36,0.00,,,0.00,0.000000,,2013-03-19 12:52:00,
2013-03-19 06:02:00,39.0,14.0,-100.00,West,277,17.0,34.0,36,0.00,,,0.00,0.000000,,2013-03-19 13:02:00,
2013-03-19 06:12:00,39.0,14.0,-100.00,West,277,17.0,34.0,36,0.00,,,0.00,0.000000,,2013-03-19 13:12:00,
2013-03-19 06:22:00,39.0,14.0,-100.00,West,277,17.0,34.0,36,0.00,,,0.00,0.000000,,2013-03-19 13:22:00,
2013-03-19 06:52:00,39.0,16.0,-100.00,NW,307,19.0,40.0,39,0.00,,,0.00,0.000000,,2013-03-19 13:52:00,
2013-03-19 07:02:00,39.0,16.0,-100.00,NW,307,19.0,40.0,39,0.00,,,0.00,0.000000,,2013-03-19 14:02:00,
2013-03-19 07:12:00,39.0,16.0,-100.00,NW,307,19.0,40.0,39,0.00,,,0.00,0.000000,,2013-03-19 14:12:00,
2013-03-19 07:22:00,39.0,16.0,-100.00,NW,307,19.0,40.0,39,0.00,,,0.00,0.000000,,2013-03-19 14:22:00,
2013-03-19 07:52:00,42.0,18.0,-100.00,NW,317,21.0,36.0,38,0.00,,,0.00,7.000000,,2013-03-19 14:52:00,
2013-03-19 08:02:00,42.0,18.0,-100.00,NW,317,21.0,36.0,38,0.00,,,0.00,7.000000,,2013-03-19 15:02:00,
2013-03-19 08:12:00,42.0,18.0,-100.00,NW,317,21.0,36.0,38,0.00,,,0.00,7.000000,,2013-03-19 15:12:00,
2013-03-19 08:21:00,42.0,18.0,-100.00,NW,317,21.0,36.0,38,0.00,,,0.00,7.000000,,2013-03-19 15:21:00,
2013-03-19 08:53:00,46.0,21.0,-100.00,SSW,194,6.0,30.0,36,0.00,,,0.00,194.000000,,2013-03-19 15:53:00,
2013-03-19 09:13:00,46.0,21.0,-100.00,SSW,194,6.0,30.0,36,0.00,,,0.00,194.000000,,2013-03-19 16:13:00,
2013-03-19 09:23:00,46.0,21.0,-100.00,SSW,194,6.0,30.0,36,0.00,,,0.00,194.000000,,2013-03-19 16:23:00,
2013-03-19 09:54:00,48.0,22.0,-100.00,NW,318,9.0,16.0,35,0.00,,,0.00,100.000000,,2013-03-19 16:54:00,
2013-03-19 10:02:00,48.0,22.0,-100.00,NW,318,9.0,16.0,35,0.00,,,0.00,100.000000,,2013-03-19 17:02:00,
2013-03-19 10:13:00,48.0,22.0,-100.00,NW,318,9.0,16.0,35,0.00,,,0.00,100.000000,,2013-03-19 17:13:00,
2013-03-19 10:23:00,48.0,22.0,-100.00,NW,318,9.0,16.0,35,0.00,,,0.00,100.000000,,2013-03-19 17:23:00,
2013-03-19 10:53:00,50.0,23.0,-100.00,NW,309,13.0,18.0,34,0.00,,,0.00,683.000000,,2013-03-19 17:53:00,
2013-03-19 11:02:00,50.0,23.0,-100.00,NW,309,13.0,18.0,34,0.00,,,0.00,683.000000,,2013-03-19 18:02:00,
2013-03-19 11:13:00,50.0,23.0,-100.00,NW,309,13.0,18.0,34,0.00,,,0.00,683.000000,,2013-03-19 18:13:00,
2013-03-19 11:23:00,50.0,23.0,-100.00,NW,309,13.0,18.0,34,0.00,,,0.00,683.000000,,2013-03-19 18:23:00,
2013-03-19 11:53:00,52.0,22.0,-100.00,NW,319,12.0,19.0,31,0.00,,,0.00,952.000000,,2013-03-19 18:53:00,
2013-03-19 12:02:00,52.0,22.0,-100.00,NW,319,12.0,19.0,31,0.00,,,0.00,952.000000,,2013-03-19 19:02:00,
2013-03-19 12:12:00,52.0,22.0,-100.00,NW,319,12.0,19.0,31,0.00,,,0.00,952.000000,,2013-03-19 19:12:00,
2013-03-19 12:22:00,52.0,22.0,-100.00,NW,319,12.0,19.0,31,0.00,,,0.00,952.000000,,2013-03-19 19:22:00,
2013-03-19 12:53:00,56.0,23.0,-100.00,WNW,295,8.0,20.0,27,0.00,,,0.00,1057.000000,,2013-03-19 19:53:00,
2013-03-19 13:02:00,56.0,23.0,-100.00,WNW,295,8.0,20.0,27,0.00,,,0.00,1057.000000,,2013-03-19 20:02:00,
2013-03-19 13:12:00,56.0,23.0,-100.00,WNW,295,8.0,20.0,27,0.00,,,0.00,1057.000000,,2013-03-19 20:12:00,
2013-03-19 13:22:00,56.0,23.0,-100.00,WNW,295,8.0,20.0,27,0.00,,,0.00,1057.000000,,2013-03-19 20:22:00,
2013-03-19 13:53:00,65.0,23.0,-100.00,North,350,3.0,13.0,20,0.00,,,0.00,1093.000000,,2013-03-19 20:53:00,
2013-03-19 14:53:00,65.0,23.0,-100.00,SW,227,7.0,14.0,20,-99.99,,,0.00,1055.000000,,2013-03-19 21:53:00,
2013-03-19 15:53:00,61.0,24.0,-100.00,WNW,282,10.0,17.0,24,-99.99,,,0.00,979.000000,,2013-03-19 22:53:00,
2013-03-19 16:02:00,61.0,24.0,-100.00,WNW,282,10.0,17.0,24,-99.99,,,0.00,979.000000,,2013-03-19 23:02:00,
2013-03-19 16:12:00,61.0,24.0,-100.00,WNW,282,10.0,17.0,24,-99.99,,,0.00,979.000000,,2013-03-19 23:12:00,
2013-03-19 16:22:00,61.0,24.0,-100.00,WNW,282,10.0,17.0,24,-99.99,,,0.00,979.000000,,2013-03-19 23:22:00,
2013-03-19 16:52:00,59.0,26.0,-100.00,NW,318,11.0,22.0,28,0.00,,,0.00,775.000000,,2013-03-19 23:52:00,
2013-03-19 17:02:00,59.0,26.0,-100.00,NW,318,11.0,22.0,28,0.00,,,0.00,775.000000,,2013-03-20 00:02:00,
2013-03-19 17:12:00,59.0,26.0,-100.00,NW,318,11.0,22.0,28,0.00,,,0.00,775.000000,,2013-03-20 00:12:00,
2013-03-19 17:22:00,59.0,26.0,-100.00,NW,318,11.0,22.0,28,0.00,,,0.00,775.000000,,2013-03-20 00:22:00,
2013-03-19 17:52:00,57.0,26.0,-100.00,WNW,285,12.0,24.0,30,0.00,,,0.00,490.000000,,2013-03-20 00:52:00,
2013-03-19 18:02:00,57.0,26.0,-100.00,WNW,285,12.0,24.0,30,0.00,,,0.00,490.000000,,2013-03-20 01:02:00,
2013-03-19 18:12:00,57.0,26.0,-100.00,WNW,285,12.0,24.0,30,0.00,,,0.00,490.000000,,2013-03-20 01:12:00,
2013-03-19 18:22:00,57.0,26.0,-100.00,WNW,285,12.0,24.0,30,0.00,,,0.00,490.000000,,2013-03-20 01:22:00,
2013-03-19 18:52:00,51.0,24.0,-100.00,West,281,16.0,28.0,34,0.00,,,0.00,187.000000,,2013-03-20 01:52:00,
2013-03-19 19:02:00,51.0,24.0,-100.00,West,281,16.0,28.0,34,0.00,,,0.00,187.000000,,2013-03-20 02:02:00,
2013-03-19 19:11:00,51.0,24.0,-100.00,West,281,16.0,28.0,34,0.00,,,0.00,187.000000,,2013-03-20 02:11:00,
2013-03-19 19:21:00,51.0,24.0,-100.00,West,281,16.0,28.0,34,0.00,,,0.00,187.000000,,2013-03-20 02:21:00,
2013-03-19 19:53:00,48.0,23.0,-100.00,WNW,287,20.0,30.0,37,0.00,,,0.00,18.000000,,2013-03-20 02:53:00,
2013-03-19 20:02:00,48.0,23.0,-100.00,WNW,287,20.0,30.0,37,0.00,,,0.00,18.000000,,2013-03-20 03:02:00,
2013-03-19 20:12:00,48.0,23.0,-100.00,WNW,287,20.0,30.0,37,0.00,,,0.00,18.000000,,2013-03-20 03:12:00,
2013-03-19 20:22:00,48.0,23.0,-100.00,WNW,287,20.0,30.0,37,0.00,,,0.00,18.000000,,2013-03-20 03:22:00,
2013-03-19 20:53:00,48.0,25.0,-100.00,WNW,288,21.0,34.0,40,0.00,,,0.00,0.000000,,2013-03-20 03:53:00,
2013-03-19 21:02:00,48.0,25.0,-100.00,WNW,288,21.0,34.0,40,0.00,,,0.00,0.000000,,2013-03-20 04:02:00,
2013-03-19 21:12:00,48.0,25.0,-100.00,WNW,288,21.0,34.0,40,0.00,,,0.00,0.000000,,2013-03-20 04:12:00,
2013-03-19 21:22:00,48.0,25.0,-100.00,WNW,288,21.0,34.0,40,0.00,,,0.00,0.000000,,2013-03-20 04:22:00,
2013-03-19 21:52:00,46.0,24.0,-100.00,NW,317,21.0,33.0,42,0.00,,,0.00,0.000000,,2013-03-20 04:52:00,
2013-03-19 22:02:00,46.0,24.0,-100.00,NW,317,21.0,33.0,42,0.00,,,0.00,0.000000,,2013-03-20 05:02:00,
2013-03-19 22:12:00,46.0,24.0,-100.00,NW,317,21.0,33.0,42,0.00,,,0.00,0.000000,,2013-03-20 05:12:00,
2013-03-19 22:22:00,46.0,24.0,-100.00,NW,317,21.0,33.0,42,0.00,,,0.00,0.000000,,2013-03-20 05:22:00,
2013-03-19 22:53:00,47.0,27.0,-100.00,NW,323,16.0,33.0,46,0.00,,,0.00,0.000000,,2013-03-20 05:53:00,
2013-03-19 23:02:00,47.0,27.0,-100.00,NW,323,16.0,33.0,46,0.00,,,0.00,0.000000,,2013-03-20 06:02:00,
2013-03-19 23:12:00,47.0,27.0,-100.00,NW,323,16.0,33.0,46,0.00,,,0.00,0.000000,,2013-03-20 06:12:00,
2013-03-19 23:21:00,47.0,27.0,-100.00,NW,323,16.0,33.0,46,0.00,,,0.00,0.000000,,2013-03-20 06:21:00,
2013-03-19 23:52:00,46.0,29.0,-100.00,WNW,282,29.0,46.0,51,0.00,,,0.00,0.000000,,2013-03-20 06:52:00,